Flag for China Weather past 2 weeks in Fushun, Liaoning, China

Now
25 °F

Passing clouds.


Feels Like: 13 °F
Forecast: 5 / 28 °F
Wind: 13 mph from Northwest

Location: Shenyang / Taoxian

Current Time: Mar 3, 2015 at 7:43:51 PM

Latest Report: Mar 3, 2015 at 7:00 PM


Visibility: N/A

Pressure: 30.07 "Hg

Humidity: 54%

Dew point: 10 °F

Location of FushunLocation

Historic Weather in Fushun — Graph

°F

Fushun temperature yesterday

Maximum temperature yesterday: 45 °F (at 12:30 PM)
Minimum temperature yesterday: 23 °F (at 2:30 AM)
Average temperature yesterday: 34 °F

Past Weeks' High & Low Weather Summary

 TemperatureHumidityPressure
High45 °F (Mar 2, 12:30 PM)100% (Feb 16, 7:00 PM)30.54 "Hg (Feb 16, 7:00 PM)
Low5 °F (Feb 19, 6:00 AM)30% (Feb 24, 11:30 AM)29.83 "Hg (Feb 21, 2:30 PM)
Average27 °F65%30.14 "Hg
* Reported Feb 16 6:00 PM — Mar 3 6:30 PM, Fushun, Weather by CustomWeather, © 2015

Note: Actual official high and low records may vary slightly from our data, if they occured in-between our weather recording intervals... More about our weather records

Advertising

Fushun weather history for previous 24 hours

 ConditionsComfort  
Time TempWeatherWind HumidityBarometerVisibility
6:30 PM
Tue, Mar 3
25 °FPassing clouds.13 mph46%30.07 "HgN/A
6:00 PM25 °FPassing clouds.13 mph46%30.04 "HgN/A
5:30 PM27 °FPassing clouds.10 mph43%30.04 "HgN/A
5:00 PM27 °FPartly sunny.15 mph36%30.01 "HgN/A
4:30 PM28 °FPartly sunny.17 mph31%30.01 "HgN/A
4:00 PM28 °FPartly sunny.10 mph34%30.01 "HgN/A
3:30 PM28 °FPartly sunny.15 mph37%30.01 "HgN/A
3:00 PM28 °FPartly sunny.15 mph40%29.98 "HgN/A
2:30 PM28 °FPartly sunny.10 mph43%29.98 "HgN/A
2:00 PM30 °FPartly sunny.13 mph40%29.98 "HgN/A
1:30 PM30 °FPartly sunny.15 mph40%30.01 "HgN/A
1:00 PM30 °FPassing clouds.13 mph40%30.01 "HgN/A
12:30 PM30 °FPassing clouds.13 mph37%30.01 "HgN/A
12:00 PM30 °FSunny.10 mph31%30.04 "Hg10 mi
11:30 AM28 °FPassing clouds.10 mph34%30.04 "HgN/A
11:00 AM28 °FSunny.13 mph34%30.04 "Hg10 mi
10:30 AM30 °FPassing clouds.10 mph34%30.04 "HgN/A
10:00 AM28 °FPassing clouds.8 mph40%30.04 "HgN/A
9:30 AM27 °FPassing clouds.10 mph43%30.01 "HgN/A
9:00 AM27 °FSunny.13 mph39%30.01 "Hg10 mi
8:30 AM27 °FSunny.10 mph46%30.01 "Hg10 mi
8:00 AM27 °FSunny.10 mph59%30.01 "Hg10 mi
7:30 AM25 °FSunny.10 mph69%30.01 "Hg10 mi
7:00 AM25 °FPassing clouds.8 mph74%30.01 "Hg4 mi
6:30 AM25 °FPassing clouds.10 mph80%30.01 "Hg4 mi
6:00 AM27 °FPassing clouds.10 mph86%30.01 "Hg4 mi
5:30 AM25 °FPassing clouds.8 mph93%29.98 "Hg4 mi
5:00 AM25 °FClear.3 mph93%29.98 "Hg4 mi
4:30 AM25 °FClear.6 mph93%29.98 "Hg10 mi
4:00 AM25 °FClear.3 mph93%29.98 "Hg10 mi
3:30 AM25 °FClear.6 mph93%29.98 "Hg10 mi
3:00 AM25 °FClear.3 mph93%29.98 "Hg10 mi
2:30 AM27 °FClear.6 mph86%29.95 "Hg10 mi
2:00 AM27 °FClear.6 mph93%29.98 "Hg10 mi
1:30 AM28 °FClear.6 mph86%29.98 "Hg10 mi
1:00 AM27 °FClear.3 mph93%29.98 "Hg10 mi
12:30 AM28 °FLight snow. Passing clouds.6 mph86%29.98 "HgN/A
12:00 AM28 °FLight snow. Clear.6 mph86%29.98 "HgN/A
11:30 PM
Mon, Mar 2
30 °FLight snow. Clear.8 mph80%29.98 "HgN/A
11:00 PM30 °FLight snow. Clear.13 mph80%29.95 "HgN/A
10:30 PM30 °FLight snow. Clear.13 mph80%29.95 "HgN/A
10:00 PM32 °FLight snow. Clear.13 mph69%29.95 "HgN/A
9:30 PM32 °FLight snow. Clear.15 mph64%29.92 "HgN/A
9:00 PM32 °FClear.10 mph55%29.95 "Hg10 mi
8:30 PM34 °FClear.10 mph51%29.92 "Hg5 mi
8:00 PM34 °FClear.13 mph51%29.92 "Hg4 mi
7:30 PM34 °FClear.8 mph56%29.92 "Hg4 mi
7:00 PM36 °FClear.8 mph56%29.89 "Hg4 mi
Weather by CustomWeather, © 2015

See weather overviewHow to use our weather pages